Location: Britannia Beach
(45.3521°N, 62.9901°W)
Time: 11:47:57
(UTC+00:00)

X-37B - Pass Details

Date: 09 August 2021
Orbit: 381 x 393 km, 45.0° (Epoch: 29 August)

Event Time Altitude Azimuth Distance (km) Brightness Sun altitude
Exits shadow 08:23:07 - 277° (W) 1,752 3.4 -7.5°
Reaches altitude 10° 08:23:59 10° 275° (W) 1,398 2.9 -7.4°
Maximum altitude 08:27:04 56° 196° (SSW) 457 0.7 -6.9°
Drops below altitude 10° 08:30:09 10° 117° (ESE) 1,395 3.9 -6.4°
Sets 08:32:14 0° 113° (ESE) 2,247 5.0 -6.1°
